DateTimeUTC,F1_A11,F1_S11,BsB_S11,BsG_S11,BsR_S11,BbsB_S11,BbsG_S11,BbsR_S11,BaB_A11,BaG_A11,BaR_A11,Tu_S11,T_S11,Uu_S11,U_S11,P_S11,T1_A11
2021-08-19T11:00:00Z,00000200,20000000,,,,,,,0000.07,-000.21,0000.04,20.1,26.5,15.8,10.7,0675.8,31.1
2021-08-19T11:01:00Z,00000200,20000000,,,,,,,0000.03,0000.13,-000.02,20.1,26.5,15.8,10.7,0675.8,31.1
2021-08-19T11:02:00Z,00000200,20000000,,,,,,,0000.02,-000.03,-000.24,20.1,26.5,15.8,10.7,0675.8,31.1
2021-08-19T11:03:00Z,00000200,60000000,,,,,,,0000.13,0000.32,-000.04,20.1,26.5,15.8,10.7,0675.8,31.1
2021-08-19T11:04:00Z,00000200,40000000,0001.36,0000.14,0000.49,0000.70,0000.08,0000.08,0000.58,0000.28,0000.42,20.2,26.4,15.9,10.9,0676.7,31.1
2021-08-19T11:05:00Z,00000200,00000000,0000.59,0000.75,0000.63,-000.32,-000.06,0000.28,0000.06,0000.08,0000.37,20.3,26.4,16.0,11.1,0676.8,31.1
2021-08-19T11:06:00Z,00000200,00000000,0001.41,0000.87,0000.32,0000.16,-000.37,0000.29,0000.07,0000.22,-000.50,20.3,26.4,16.0,11.1,0676.8,31.1
2021-08-19T11:07:00Z,00000200,00000000,0001.36,0000.64,0000.75,0000.52,0000.08,0000.18,0000.26,0000.28,0000.70,20.3,26.4,16.0,11.1,0676.8,31.1
2021-08-19T11:08:00Z,00000200,00000000,0001.37,0000.58,0000.57,0000.11,0000.29,0000.05,-000.01,0000.24,0000.09,20.3,26.3,16.0,11.1,0676.8,31.1
2021-08-19T11:09:00Z,00000200,00010000,0000.91,0000.61,0000.71,0000.28,0000.27,0000.28,0000.52,0000.28,0000.22,20.3,26.3,16.2,11.2,0676.8,31.1
2021-08-19T11:10:00Z,00000200,00000000,0000.91,0000.24,0000.39,0000.57,-000.05,0000.09,0000.29,0000.33,0000.25,20.2,26.3,16.2,11.2,0676.8,31.1
2021-08-19T11:11:00Z,00000200,00000000,0000.69,0000.18,0000.08,0000.20,0000.14,0000.19,0000.07,-000.17,-000.37,20.3,26.4,16.2,11.2,0676.8,31.1
2021-08-19T11:12:00Z,00000200,00000000,0001.08,0000.34,0000.23,0000.27,0000.12,0000.35,0000.35,0000.28,0000.61,20.3,26.4,16.3,11.3,0676.8,31.1
2021-08-19T11:13:00Z,00000200,00000000,0001.60,0000.21,0000.56,0000.67,-000.16,0000.06,-000.07,0000.02,-000.20,20.3,26.4,16.3,11.3,0676.8,31.1
2021-08-19T11:14:00Z,00000200,00000000,0001.35,0000.44,0000.39,-000.05,0000.19,0000.07,0000.04,0000.22,-000.04,20.3,26.4,16.2,11.2,0676.8,31.1
2021-08-19T11:15:00Z,00000200,00000000,0000.27,0000.27,0000.51,0000.30,-000.16,-000.18,0000.20,0000.12,0000.23,20.3,26.4,16.2,11.2,0676.8,31.1
2021-08-19T11:16:00Z,00000200,00000000,0001.47,0000.19,0000.55,0000.40,0000.20,0000.16,-000.20,0000.19,0000.41,20.3,26.4,16.2,11.2,0676.8,31.1
2021-08-19T11:17:00Z,00000200,00000000,0000.76,0000.41,0000.28,0000.13,0000.24,-000.12,0000.29,0000.27,0000.11,20.3,26.4,16.2,11.2,0676.8,31.1
2021-08-19T11:18:00Z,00000200,00000000,0000.59,0000.57,0000.21,0000.14,0000.07,0000.01,0000.43,-000.05,-000.19,20.3,26.4,16.1,11.2,0676.8,31.1
2021-08-19T11:19:00Z,00000200,00000000,0000.54,0000.48,0000.65,0000.08,0000.18,0000.30,-000.23,0000.15,0000.08,20.3,26.4,16.1,11.1,0676.8,31.1
2021-08-19T11:20:00Z,00000200,00000000,0000.15,0000.54,0000.48,-000.12,0000.21,0000.19,0000.47,0000.38,0000.36,20.3,26.4,16.0,11.1,0676.8,31.1
2021-08-19T11:21:00Z,00000200,00000000,0000.68,0000.33,0000.22,0000.52,0000.17,0000.16,0000.26,-000.16,0000.24,20.3,26.4,15.9,11.0,0676.8,31.1
2021-08-19T11:22:00Z,00000200,00000000,0000.70,0000.22,0000.26,0000.63,0000.16,-000.04,-000.22,0000.05,-000.24,20.3,26.4,15.9,11.0,0676.7,31.1
2021-08-19T11:23:00Z,00000200,00000000,0000.69,0000.62,0000.34,-000.17,-000.31,0000.15,0000.00,0000.07,0000.03,20.3,26.4,15.8,11.0,0676.7,31.1
2021-08-19T11:24:00Z,00000200,00000000,0000.14,0000.46,0000.60,0000.05,-000.06,0000.11,0000.30,0000.20,0000.23,20.3,26.4,15.7,10.9,0676.7,31.1
2021-08-19T11:25:00Z,00000200,00000000,0000.09,0000.24,0000.29,0000.78,-000.21,-000.21,0000.21,-000.10,0000.23,20.3,26.4,15.8,11.0,0676.7,31.1
2021-08-19T11:26:00Z,00000200,00000000,0000.39,0000.51,0000.57,0001.02,-000.09,0000.25,0000.16,0000.14,-000.20,20.3,26.4,15.7,10.9,0676.8,31.1
2021-08-19T11:27:00Z,00000200,00000000,0000.42,0000.64,0000.23,-000.04,0000.00,0000.30,-000.08,0000.22,0000.41,20.4,26.4,15.8,11.0,0676.7,31.1
2021-08-19T11:28:00Z,00000200,00000000,0000.23,0000.52,0000.48,0000.09,0000.28,0000.38,0000.20,0000.26,-000.17,20.4,26.4,15.7,10.9,0676.7,31.1
2021-08-19T11:29:00Z,00000200,00000000,0000.45,0000.51,0000.14,0000.51,0000.01,-000.16,0000.21,0000.26,0000.14,20.4,26.4,15.6,10.9,0676.8,31.1
2021-08-19T11:30:00Z,00000200,00000000,0000.59,0000.38,-000.06,0000.52,0000.20,0000.02,0000.13,0000.03,0000.21,20.4,26.4,15.5,10.8,0676.7,31.1
2021-08-19T11:31:00Z,00000200,00000000,0000.42,0000.47,0000.30,-000.29,-000.09,0000.10,0000.18,-000.26,0000.10,20.4,26.4,15.4,10.7,0676.7,31.1
2021-08-19T11:32:00Z,00000200,00000000,-000.05,0000.42,0000.44,0000.01,0000.28,0000.27,-000.24,0000.25,-000.30,20.4,26.4,15.2,10.6,0676.7,31.1
2021-08-19T11:33:00Z,00000200,00000000,-000.08,-000.20,0000.50,0000.30,-000.09,-000.00,0000.39,0000.30,0000.49,20.4,26.4,15.2,10.6,0676.7,31.1
2021-08-19T11:34:00Z,00000200,00000000,0000.52,-000.07,-000.01,-000.11,0000.18,0000.40,0000.20,0000.20,-000.07,20.4,26.4,15.3,10.7,0676.7,31.1
2021-08-19T11:35:00Z,00000200,00000000,0000.42,0000.14,0000.06,0000.24,-000.03,-000.07,0000.13,0000.26,0000.16,20.4,26.4,15.1,10.6,0676.8,31.1
2021-08-19T11:36:00Z,00000200,00000000,0001.22,0000.20,0000.03,0000.07,-000.32,0000.01,0000.19,-000.16,0000.25,20.4,26.4,15.3,10.7,0676.8,31.1
2021-08-19T11:37:00Z,00000200,00000000,-000.01,-000.35,-000.05,0000.50,0000.17,0000.25,-000.14,-000.09,0000.03,20.4,26.4,15.4,10.7,0676.8,31.1
2021-08-19T11:38:00Z,00000200,00000000,-000.18,0000.06,0000.27,-000.07,-000.03,0000.22,0000.31,0000.42,0000.27,20.5,26.4,15.2,10.7,0676.8,31.1
2021-08-19T11:39:00Z,00000200,00000000,0000.54,0000.22,0000.21,0000.02,0000.09,-000.19,-000.00,-000.51,-000.51,20.5,26.4,15.3,10.7,0676.8,31.1
2021-08-19T11:40:00Z,00000200,00000000,0000.38,0000.37,0000.40,-000.22,0000.21,0000.25,-000.39,0000.16,0000.17,20.5,26.4,15.3,10.7,0676.8,31.1
2021-08-19T11:41:00Z,00000200,00000000,0000.38,0000.27,0000.37,0000.09,-000.01,0000.24,0000.28,0000.19,-000.09,20.5,26.4,15.3,10.7,0676.8,31.1
2021-08-19T11:42:00Z,00000200,00000000,0000.49,0000.15,0000.42,0000.89,0000.08,0000.14,0000.13,0000.15,0000.15,20.5,26.4,15.4,10.7,0676.8,31.1
2021-08-19T11:43:00Z,00000200,00000000,0000.20,0000.03,0000.14,-000.37,0000.10,0000.29,-000.18,-000.45,0000.13,20.5,26.4,15.3,10.7,0676.8,31.1
2021-08-19T11:44:00Z,00000200,00000000,0000.21,0000.23,0000.32,0000.88,0000.22,0000.09,0000.24,0000.56,-000.00,20.5,26.4,15.3,10.7,0676.8,31.1
2021-08-19T11:45:00Z,00000200,00000000,0000.67,0000.27,0000.42,0000.65,0000.21,0000.11,0000.28,0000.03,-000.08,20.5,26.4,15.4,10.8,0676.8,31.1
2021-08-19T11:46:00Z,00000200,00000000,0001.12,0000.24,-000.05,0000.39,0000.08,0000.06,-000.05,-000.25,0000.09,20.5,26.4,15.4,10.7,0676.8,31.1
2021-08-19T11:47:00Z,00000200,00000000,0000.33,0000.33,-000.00,0000.30,-000.36,-000.07,0000.07,0000.12,-000.06,20.5,26.4,15.3,10.7,0676.8,31.1
2021-08-19T11:48:00Z,00000200,00000000,0000.61,0000.17,0000.04,0000.25,0000.02,0000.09,-000.33,0000.11,0000.15,20.5,26.4,15.4,10.7,0676.8,31.1
2021-08-19T11:49:00Z,00000200,00000000,0000.37,0000.35,0000.25,0000.76,0000.17,0000.10,0000.25,0000.08,0000.01,20.5,26.4,15.3,10.6,0676.8,31.1
2021-08-19T11:50:00Z,00000200,00000000,0000.02,0000.32,0000.31,0000.32,0000.22,0000.06,0000.27,0000.19,0000.10,20.5,26.4,15.4,10.7,0676.8,31.1
2021-08-19T11:51:00Z,00000200,00000000,0000.82,0000.10,0000.69,0000.50,0000.13,0000.08,0000.30,0000.31,-000.07,20.5,26.5,15.4,10.7,0676.8,31.1
2021-08-19T11:52:00Z,00000200,00000000,0000.40,0000.47,0000.30,0000.17,0000.13,-000.24,-000.05,0000.06,0000.53,20.5,26.5,15.3,10.7,0676.8,31.1
2021-08-19T11:53:00Z,00000200,00000000,0001.25,0000.18,0000.08,0000.74,-000.02,0000.05,0000.06,-000.11,-000.09,20.5,26.5,15.2,10.6,0676.8,31.1
2021-08-19T11:54:00Z,00000200,00000000,0000.60,0000.31,0000.16,0000.39,0000.03,0000.03,0000.19,0000.16,-000.05,20.5,26.5,15.4,10.7,0676.8,31.1
2021-08-19T11:55:00Z,00000200,00000000,0000.51,0000.38,0000.30,0000.03,-000.04,0000.49,-000.05,0000.05,-000.11,20.5,26.5,15.4,10.7,0676.8,31.1
2021-08-19T11:56:00Z,00000200,00000000,0000.43,0000.36,0000.32,0000.07,0000.01,0000.05,0000.04,0000.12,0000.02,20.5,26.5,15.4,10.7,0676.8,31.1
2021-08-19T11:57:00Z,00000200,40000000,,,,,,,0000.23,0000.12,0000.42,20.5,26.5,15.1,10.5,0676.8,31.1
2021-08-19T11:58:00Z,00000200,60000000,,,,,,,-000.03,-000.27,0000.04,20.3,26.6,15.4,10.5,0675.9,31.1
2021-08-19T11:59:00Z,00000200,20000000,,,,,,,0000.12,0000.30,-000.25,20.3,26.7,15.4,10.5,0675.8,31.1
